Time,TemperatureF,DewpointF,PressureIn,WindDirection,WindDirectionDegrees,WindSpeedMPH,WindSpeedGustMPH,Humidity,HourlyPrecipIn,Conditions,Clouds,dailyrainin,SoftwareType,DateUTC
2013-03-07 00:02:00,12.2,10.3,30.33,NNE,26,0.0,0.0,92,0.00,,,0.00,Wunderground v.1.15,2013-03-07 06:02:00,
2013-03-07 00:07:00,12.0,10.1,30.33,NNE,26,0.0,0.0,92,0.00,,,0.00,Wunderground v.1.15,2013-03-07 06:07:00,
2013-03-07 00:13:00,12.2,10.6,30.33,NNE,26,0.0,0.0,93,0.00,,,0.00,Wunderground v.1.15,2013-03-07 06:13:00,
2013-03-07 00:19:00,12.0,10.4,30.33,NNE,26,0.0,0.0,93,0.00,,,0.00,Wunderground v.1.15,2013-03-07 06:19:00,
2013-03-07 00:25:00,11.7,9.8,30.33,NNE,27,0.0,0.0,92,0.00,,,0.00,Wunderground v.1.15,2013-03-07 06:25:00,
2013-03-07 00:31:00,11.5,9.6,30.33,NNE,26,0.0,0.0,92,0.00,,,0.00,Wunderground v.1.15,2013-03-07 06:31:00,
2013-03-07 00:38:00,11.2,9.3,30.33,NNE,26,0.0,0.0,92,0.00,,,0.00,Wunderground v.1.15,2013-03-07 06:38:00,
2013-03-07 00:43:00,11.1,9.2,30.33,NNE,26,0.0,0.0,92,0.00,,,0.00,Wunderground v.1.15,2013-03-07 06:43:00,
2013-03-07 00:49:00,11.0,9.1,30.33,NNE,26,0.0,0.0,92,0.00,,,0.00,Wunderground v.1.15,2013-03-07 06:49:00,
2013-03-07 00:55:00,11.0,9.1,30.34,NNE,26,0.0,0.0,92,0.00,,,0.00,Wunderground v.1.15,2013-03-07 06:55:00,
2013-03-07 01:01:00,10.8,8.7,30.34,NNE,26,0.0,0.0,91,0.00,,,0.00,Wunderground v.1.15,2013-03-07 07:01:00,
2013-03-07 01:08:00,10.7,8.8,30.34,NNE,26,0.0,0.0,92,0.00,,,0.00,Wunderground v.1.15,2013-03-07 07:08:00,
2013-03-07 01:13:00,10.7,8.8,30.34,NNE,26,0.0,0.0,92,0.00,,,0.00,Wunderground v.1.15,2013-03-07 07:13:00,
2013-03-07 01:20:00,11.0,9.4,30.35,NNE,26,0.0,0.0,93,0.00,,,0.00,Wunderground v.1.15,2013-03-07 07:20:00,
2013-03-07 01:25:00,11.1,9.2,30.35,NNE,26,0.0,0.0,92,0.00,,,0.00,Wunderground v.1.15,2013-03-07 07:25:00,
2013-03-07 01:31:00,11.3,9.7,30.34,NNE,18,0.0,0.0,93,0.00,,,0.00,Wunderground v.1.15,2013-03-07 07:31:00,
2013-03-07 01:37:00,11.4,9.8,30.34,NNE,18,0.0,0.0,93,0.00,,,0.00,Wunderground v.1.15,2013-03-07 07:37:00,
2013-03-07 01:43:00,11.4,9.8,30.34,NNE,18,0.0,0.0,93,0.00,,,0.00,Wunderground v.1.15,2013-03-07 07:43:00,
2013-03-07 01:49:00,11.2,9.3,30.34,NNE,18,0.0,0.0,92,0.00,,,0.00,Wunderground v.1.15,2013-03-07 07:49:00,
2013-03-07 01:55:00,11.1,9.2,30.35,NNE,18,0.0,0.0,92,0.00,,,0.00,Wunderground v.1.15,2013-03-07 07:55:00,
2013-03-07 02:01:00,11.0,9.1,30.35,North,8,0.0,0.0,92,0.00,,,0.00,Wunderground v.1.15,2013-03-07 08:01:00,
2013-03-07 02:07:00,10.9,9.0,30.35,North,8,0.0,0.0,92,0.00,,,0.00,Wunderground v.1.15,2013-03-07 08:07:00,
2013-03-07 02:13:00,10.8,8.9,30.35,North,8,0.0,0.0,92,0.00,,,0.00,Wunderground v.1.15,2013-03-07 08:13:00,
2013-03-07 02:19:00,10.7,8.8,30.34,North,6,0.0,0.0,92,0.00,,,0.00,Wunderground v.1.15,2013-03-07 08:19:00,
2013-03-07 02:26:00,10.5,8.4,30.34,North,6,0.0,0.0,91,0.00,,,0.00,Wunderground v.1.15,2013-03-07 08:26:00,
2013-03-07 02:31:00,10.4,8.3,30.34,North,6,0.0,0.0,91,0.00,,,0.00,Wunderground v.1.15,2013-03-07 08:31:00,
2013-03-07 02:37:00,10.2,8.1,30.33,North,6,0.0,0.0,91,0.00,,,0.00,Wunderground v.1.15,2013-03-07 08:37:00,
2013-03-07 02:43:00,10.2,8.3,30.32,North,8,0.0,0.0,92,0.00,,,0.00,Wunderground v.1.15,2013-03-07 08:43:00,
2013-03-07 02:49:00,10.1,8.0,30.32,NNE,13,0.0,0.0,91,0.00,,,0.00,Wunderground v.1.15,2013-03-07 08:49:00,
2013-03-07 02:55:00,9.9,7.8,30.33,NNE,13,0.0,0.0,91,0.00,,,0.00,Wunderground v.1.15,2013-03-07 08:55:00,
2013-03-07 03:02:00,9.7,7.6,30.33,NNE,13,0.0,0.0,91,0.00,,,0.00,Wunderground v.1.15,2013-03-07 09:02:00,
2013-03-07 03:07:00,9.5,7.4,30.33,NNE,13,0.0,0.0,91,0.00,,,0.00,Wunderground v.1.15,2013-03-07 09:07:00,
2013-03-07 03:13:00,9.4,7.3,30.33,NNE,13,0.0,0.0,91,0.00,,,0.00,Wunderground v.1.15,2013-03-07 09:13:00,
2013-03-07 03:19:00,9.2,7.3,30.32,NNE,13,0.0,0.0,92,0.00,,,0.00,Wunderground v.1.15,2013-03-07 09:19:00,
2013-03-07 03:25:00,8.9,6.8,30.33,NNE,13,0.0,0.0,91,0.00,,,0.00,Wunderground v.1.15,2013-03-07 09:25:00,
2013-03-07 03:31:00,8.7,6.6,30.32,NNE,13,0.0,0.0,91,0.00,,,0.00,Wunderground v.1.15,2013-03-07 09:31:00,
2013-03-07 03:37:00,8.4,6.1,30.33,NNE,13,0.0,0.0,90,0.00,,,0.00,Wunderground v.1.15,2013-03-07 09:37:00,
2013-03-07 03:43:00,8.1,5.8,30.33,NNE,13,0.0,0.0,90,0.00,,,0.00,Wunderground v.1.15,2013-03-07 09:43:00,
2013-03-07 03:49:00,7.8,5.5,30.33,NNE,13,0.0,0.0,90,0.00,,,0.00,Wunderground v.1.15,2013-03-07 09:49:00,
2013-03-07 03:55:00,7.5,4.9,30.33,NNE,13,0.0,0.0,89,0.00,,,0.00,Wunderground v.1.15,2013-03-07 09:55:00,
2013-03-07 04:01:00,7.2,4.6,30.33,NNE,13,0.0,0.0,89,0.00,,,0.00,Wunderground v.1.15,2013-03-07 10:01:00,
2013-03-07 04:07:00,6.9,4.3,30.33,NNE,13,0.0,0.0,89,0.00,,,0.00,Wunderground v.1.15,2013-03-07 10:07:00,
2013-03-07 04:13:00,6.8,4.5,30.33,NNE,13,0.0,0.0,90,0.00,,,0.00,Wunderground v.1.15,2013-03-07 10:13:00,
2013-03-07 04:19:00,6.9,4.8,30.33,NNE,13,0.0,0.0,91,0.00,,,0.00,Wunderground v.1.15,2013-03-07 10:19:00,
2013-03-07 04:25:00,6.7,4.4,30.33,NNE,13,0.0,0.0,90,0.00,,,0.00,Wunderground v.1.15,2013-03-07 10:25:00,
2013-03-07 04:31:00,6.6,4.5,30.33,NNE,13,0.0,0.0,91,0.00,,,0.00,Wunderground v.1.15,2013-03-07 10:31:00,
2013-03-07 04:37:00,6.6,4.3,30.33,NNE,13,0.0,0.0,90,0.00,,,0.00,Wunderground v.1.15,2013-03-07 10:37:00,
2013-03-07 04:43:00,6.7,4.6,30.34,NNE,13,0.0,0.0,91,0.00,,,0.00,Wunderground v.1.15,2013-03-07 10:43:00,
2013-03-07 04:49:00,6.5,4.4,30.34,NNE,13,0.0,0.0,91,0.00,,,0.00,Wunderground v.1.15,2013-03-07 10:49:00,
2013-03-07 04:55:00,6.5,4.4,30.34,NNE,13,0.0,0.0,91,0.00,,,0.00,Wunderground v.1.15,2013-03-07 10:55:00,
2013-03-07 05:01:00,6.4,4.3,30.34,NNE,13,0.0,0.0,91,0.00,,,0.00,Wunderground v.1.15,2013-03-07 11:01:00,
2013-03-07 05:07:00,6.4,4.3,30.34,NNE,13,0.0,0.0,91,0.00,,,0.00,Wunderground v.1.15,2013-03-07 11:07:00,
2013-03-07 05:13:00,6.8,5.0,30.34,NNE,13,0.0,0.0,92,0.00,,,0.00,Wunderground v.1.15,2013-03-07 11:13:00,
2013-03-07 05:19:00,6.9,4.8,30.34,NNE,13,0.0,0.0,91,0.00,,,0.00,Wunderground v.1.15,2013-03-07 11:19:00,
2013-03-07 05:25:00,6.9,4.8,30.34,NNE,13,0.0,0.0,91,0.00,,,0.00,Wunderground v.1.15,2013-03-07 11:25:00,
2013-03-07 05:31:00,7.0,4.9,30.34,NNE,13,0.0,0.0,91,0.00,,,0.00,Wunderground v.1.15,2013-03-07 11:31:00,
2013-03-07 05:37:00,7.0,4.9,30.34,NNE,13,0.0,0.0,91,0.00,,,0.00,Wunderground v.1.15,2013-03-07 11:37:00,
2013-03-07 05:43:00,6.7,4.6,30.34,NNE,13,0.0,0.0,91,0.00,,,0.00,Wunderground v.1.15,2013-03-07 11:43:00,
2013-03-07 05:49:00,6.5,4.4,30.34,NNE,13,0.0,0.0,91,0.00,,,0.00,Wunderground v.1.15,2013-03-07 11:49:00,
2013-03-07 05:56:00,6.4,4.3,30.34,NNE,13,0.0,0.0,91,0.00,,,0.00,Wunderground v.1.15,2013-03-07 11:56:00,
2013-03-07 06:01:00,6.2,4.1,30.34,NNE,13,0.0,0.0,91,0.00,,,0.00,Wunderground v.1.15,2013-03-07 12:01:00,
2013-03-07 06:07:00,6.2,4.1,30.34,NNE,13,0.0,0.0,91,0.00,,,0.00,Wunderground v.1.15,2013-03-07 12:07:00,
2013-03-07 06:13:00,6.0,3.9,30.35,NNE,13,0.0,0.0,91,0.00,,,0.00,Wunderground v.1.15,2013-03-07 12:13:00,
2013-03-07 06:20:00,5.9,3.8,30.35,NNE,13,0.0,0.0,91,0.00,,,0.00,Wunderground v.1.15,2013-03-07 12:20:00,
2013-03-07 06:25:00,5.6,3.3,30.35,NNE,13,0.0,0.0,90,0.00,,,0.00,Wunderground v.1.15,2013-03-07 12:25:00,
2013-03-07 06:31:00,5.4,3.1,30.35,NNE,13,0.0,0.0,90,0.00,,,0.00,Wunderground v.1.15,2013-03-07 12:31:00,
2013-03-07 06:37:00,5.6,3.5,30.35,NNE,13,0.0,0.0,91,0.00,,,0.00,Wunderground v.1.15,2013-03-07 12:37:00,
2013-03-07 06:43:00,5.9,3.8,30.35,NNE,13,0.0,0.0,91,0.00,,,0.00,Wunderground v.1.15,2013-03-07 12:43:00,
2013-03-07 06:49:00,5.9,3.6,30.35,NNE,13,0.0,0.0,90,0.00,,,0.00,Wunderground v.1.15,2013-03-07 12:49:00,
2013-03-07 06:55:00,5.9,3.6,30.35,NNE,13,0.0,0.0,90,0.00,,,0.00,Wunderground v.1.15,2013-03-07 12:55:00,
2013-03-07 07:01:00,5.9,3.6,30.36,NNE,13,0.0,0.0,90,0.00,,,0.00,Wunderground v.1.15,2013-03-07 13:01:00,
2013-03-07 07:07:00,6.2,4.1,30.36,NNE,13,0.0,0.0,91,0.00,,,0.00,Wunderground v.1.15,2013-03-07 13:07:00,
2013-03-07 07:13:00,6.6,4.5,30.36,NNE,13,0.0,0.0,91,0.00,,,0.00,Wunderground v.1.15,2013-03-07 13:13:00,
2013-03-07 07:19:00,7.0,4.9,30.36,NNE,13,0.0,0.0,91,0.00,,,0.00,Wunderground v.1.15,2013-03-07 13:19:00,
2013-03-07 07:25:00,7.5,5.4,30.36,NNE,13,0.0,0.0,91,0.00,,,0.00,Wunderground v.1.15,2013-03-07 13:25:00,
2013-03-07 07:32:00,8.0,5.9,30.37,NNE,22,0.0,1.0,91,0.00,,,0.00,Wunderground v.1.15,2013-03-07 13:32:00,
2013-03-07 07:37:00,8.4,6.3,30.37,NNW,328,0.0,1.0,91,0.00,,,0.00,Wunderground v.1.15,2013-03-07 13:37:00,
2013-03-07 07:43:00,8.7,6.4,30.37,NW,319,0.0,1.0,90,0.00,,,0.00,Wunderground v.1.15,2013-03-07 13:43:00,
2013-03-07 07:51:00,9.5,7.4,30.37,NW,322,0.0,0.0,91,0.00,,,0.00,Wunderground v.1.15,2013-03-07 13:51:00,
2013-03-07 07:57:00,10.4,8.3,30.37,NW,321,0.0,0.0,91,0.00,,,0.00,Wunderground v.1.15,2013-03-07 13:57:00,
2013-03-07 08:03:00,11.2,8.8,30.37,NW,322,0.0,0.0,90,0.00,,,0.00,Wunderground v.1.15,2013-03-07 14:03:00,
2013-03-07 08:09:00,11.6,9.0,30.37,SE,125,0.0,1.0,89,0.00,,,0.00,Wunderground v.1.15,2013-03-07 14:09:00,
2013-03-07 08:15:00,11.5,8.4,30.37,SE,131,1.0,1.0,87,0.00,,,0.00,Wunderground v.1.15,2013-03-07 14:15:00,
2013-03-07 08:21:00,11.4,8.3,30.37,SE,125,1.0,2.0,87,0.00,,,0.00,Wunderground v.1.15,2013-03-07 14:21:00,
2013-03-07 08:27:00,11.7,8.6,30.37,ESE,121,1.0,2.0,87,0.00,,,0.00,Wunderground v.1.15,2013-03-07 14:27:00,
2013-03-07 08:33:00,12.1,9.2,30.36,SE,132,1.0,2.0,88,0.00,,,0.00,Wunderground v.1.15,2013-03-07 14:33:00,
2013-03-07 08:39:00,12.1,9.2,30.36,ESE,123,2.0,2.0,88,0.00,,,0.00,Wunderground v.1.15,2013-03-07 14:39:00,
2013-03-07 08:46:00,12.3,9.4,30.37,SE,136,2.0,2.0,88,0.00,,,0.00,Wunderground v.1.15,2013-03-07 14:46:00,
2013-03-07 08:51:00,12.6,9.7,30.37,ESE,118,1.0,2.0,88,0.00,,,0.00,Wunderground v.1.15,2013-03-07 14:51:00,
2013-03-07 08:57:00,12.8,9.7,30.37,SE,129,1.0,2.0,87,0.00,,,0.00,Wunderground v.1.15,2013-03-07 14:57:00,
2013-03-07 09:03:00,13.0,9.9,30.37,SE,141,1.0,2.0,87,0.00,,,0.00,Wunderground v.1.15,2013-03-07 15:03:00,
2013-03-07 09:09:00,13.5,10.4,30.37,SE,134,2.0,2.0,87,0.00,,,0.00,Wunderground v.1.15,2013-03-07 15:09:00,
2013-03-07 09:15:00,13.7,10.5,30.37,SE,136,2.0,3.0,87,0.00,,,0.00,Wunderground v.1.15,2013-03-07 15:15:00,
2013-03-07 09:21:00,14.1,10.7,30.37,ESE,102,2.0,2.0,86,0.00,,,0.00,Wunderground v.1.15,2013-03-07 15:21:00,
2013-03-07 09:27:00,14.2,10.8,30.37,SE,129,2.0,3.0,86,0.00,,,0.00,Wunderground v.1.15,2013-03-07 15:27:00,
2013-03-07 09:33:00,14.8,11.6,30.37,SE,146,2.0,2.0,87,0.00,,,0.00,Wunderground v.1.15,2013-03-07 15:33:00,
2013-03-07 09:39:00,15.2,12.0,30.37,SE,141,2.0,2.0,87,0.00,,,0.00,Wunderground v.1.15,2013-03-07 15:39:00,
2013-03-07 09:45:00,15.4,12.0,30.37,SE,130,2.0,4.0,86,0.00,,,0.00,Wunderground v.1.15,2013-03-07 15:45:00,
2013-03-07 09:51:00,15.5,12.1,30.37,ESE,116,3.0,4.0,86,0.00,,,0.00,Wunderground v.1.15,2013-03-07 15:51:00,
2013-03-07 09:57:00,15.7,12.3,30.37,SE,134,3.0,4.0,86,0.00,,,0.00,Wunderground v.1.15,2013-03-07 15:57:00,
2013-03-07 10:03:00,15.9,12.5,30.37,SSE,153,2.0,4.0,86,0.00,,,0.00,Wunderground v.1.15,2013-03-07 16:03:00,
2013-03-07 10:09:00,16.2,12.5,30.37,SE,129,2.0,2.0,85,0.00,,,0.00,Wunderground v.1.15,2013-03-07 16:09:00,
2013-03-07 10:15:00,16.4,12.9,30.37,SE,139,3.0,4.0,86,0.00,,,0.00,Wunderground v.1.15,2013-03-07 16:15:00,
2013-03-07 10:21:00,16.7,13.0,30.37,ESE,121,3.0,5.0,85,0.00,,,0.00,Wunderground v.1.15,2013-03-07 16:21:00,
2013-03-07 10:27:00,17.4,13.9,30.37,SE,134,3.0,5.0,86,0.00,,,0.00,Wunderground v.1.15,2013-03-07 16:27:00,
2013-03-07 10:33:00,18.2,14.2,30.37,SE,136,3.0,4.0,84,0.00,,,0.00,Wunderground v.1.15,2013-03-07 16:33:00,
2013-03-07 10:40:00,18.8,14.8,30.37,SSE,149,3.0,3.0,84,0.00,,,0.00,Wunderground v.1.15,2013-03-07 16:40:00,
2013-03-07 10:45:00,18.8,14.5,30.37,SE,135,2.0,4.0,83,0.00,,,0.00,Wunderground v.1.15,2013-03-07 16:45:00,
2013-03-07 10:51:00,19.8,15.5,30.36,SSE,160,2.0,2.0,83,0.00,,,0.00,Wunderground v.1.15,2013-03-07 16:51:00,
2013-03-07 10:57:00,20.2,15.6,30.36,SSE,159,2.0,3.0,82,0.00,,,0.00,Wunderground v.1.15,2013-03-07 16:57:00,
2013-03-07 11:03:00,19.8,14.9,30.36,SE,143,3.0,4.0,81,0.00,,,0.00,Wunderground v.1.15,2013-03-07 17:03:00,
2013-03-07 11:09:00,19.4,14.8,30.36,SE,137,3.0,4.0,82,0.00,,,0.00,Wunderground v.1.15,2013-03-07 17:09:00,
2013-03-07 11:15:00,19.5,15.2,30.36,SE,133,3.0,4.0,83,0.00,,,0.00,Wunderground v.1.15,2013-03-07 17:15:00,
2013-03-07 11:21:00,20.0,15.7,30.36,SSE,158,2.0,3.0,83,0.00,,,0.00,Wunderground v.1.15,2013-03-07 17:21:00,
2013-03-07 11:27:00,19.9,15.0,30.36,ESE,116,2.0,3.0,81,0.00,,,0.00,Wunderground v.1.15,2013-03-07 17:27:00,
2013-03-07 11:33:00,20.1,15.5,30.36,SE,126,2.0,2.0,82,0.00,,,0.00,Wunderground v.1.15,2013-03-07 17:33:00,
2013-03-07 11:39:00,20.2,15.0,30.36,SE,131,2.0,2.0,80,0.00,,,0.00,Wunderground v.1.15,2013-03-07 17:39:00,
2013-03-07 11:45:00,20.5,15.9,30.37,ESE,121,2.0,2.0,82,0.00,,,0.00,Wunderground v.1.15,2013-03-07 17:45:00,
2013-03-07 11:51:00,21.2,16.3,30.37,SE,131,2.0,3.0,81,0.00,,,0.00,Wunderground v.1.15,2013-03-07 17:51:00,
2013-03-07 11:58:00,21.6,16.4,30.37,SE,127,2.0,3.0,80,0.00,,,0.00,Wunderground v.1.15,2013-03-07 17:58:00,
2013-03-07 12:03:00,22.1,16.9,30.37,SE,134,2.0,2.0,80,0.00,,,0.00,Wunderground v.1.15,2013-03-07 18:03:00,
2013-03-07 12:09:00,22.2,16.7,30.37,SE,132,2.0,2.0,79,0.00,,,0.00,Wunderground v.1.15,2013-03-07 18:09:00,
2013-03-07 12:15:00,22.5,17.0,30.37,SE,124,2.0,4.0,79,0.00,,,0.00,Wunderground v.1.15,2013-03-07 18:15:00,
2013-03-07 12:21:00,22.7,16.9,30.37,ESE,122,2.0,4.0,78,0.00,,,0.00,Wunderground v.1.15,2013-03-07 18:21:00,
2013-03-07 12:27:00,22.9,17.4,30.37,SSE,162,3.0,4.0,79,0.00,,,0.00,Wunderground v.1.15,2013-03-07 18:27:00,
2013-03-07 12:33:00,23.4,17.6,30.37,SE,139,3.0,3.0,78,0.00,,,0.00,Wunderground v.1.15,2013-03-07 18:33:00,
2013-03-07 12:39:00,24.6,18.7,30.37,SE,133,2.0,4.0,78,0.00,,,0.00,Wunderground v.1.15,2013-03-07 18:39:00,
2013-03-07 12:45:00,24.4,18.2,30.36,SSE,147,2.0,5.0,77,0.00,,,0.00,Wunderground v.1.15,2013-03-07 18:45:00,
2013-03-07 12:51:00,24.2,17.7,30.36,ESE,121,3.0,4.0,76,0.00,,,0.00,Wunderground v.1.15,2013-03-07 18:51:00,
2013-03-07 12:58:00,24.0,17.8,30.35,SSE,167,3.0,4.0,77,0.00,,,0.00,Wunderground v.1.15,2013-03-07 18:58:00,
2013-03-07 13:03:00,23.7,17.8,30.35,ESE,113,3.0,4.0,78,0.00,,,0.00,Wunderground v.1.15,2013-03-07 19:03:00,
2013-03-07 13:09:00,24.1,18.5,30.35,SE,143,3.0,4.0,79,0.00,,,0.00,Wunderground v.1.15,2013-03-07 19:09:00,
2013-03-07 13:15:00,24.4,18.8,30.34,SE,141,3.0,4.0,79,0.00,,,0.00,Wunderground v.1.15,2013-03-07 19:15:00,
2013-03-07 13:21:00,24.6,19.0,30.34,SE,135,3.0,3.0,79,0.00,,,0.00,Wunderground v.1.15,2013-03-07 19:21:00,
2013-03-07 13:27:00,25.3,20.0,30.33,SE,143,3.0,4.0,80,0.00,,,0.00,Wunderground v.1.15,2013-03-07 19:27:00,
2013-03-07 13:33:00,25.4,19.5,30.33,SE,129,4.0,6.0,78,0.00,,,0.00,Wunderground v.1.15,2013-03-07 19:33:00,
2013-03-07 13:39:00,25.9,20.3,30.33,SE,146,3.0,3.0,79,0.00,,,0.00,Wunderground v.1.15,2013-03-07 19:39:00,
2013-03-07 13:45:00,26.5,20.6,30.33,SSE,149,3.0,3.0,78,0.00,,,0.00,Wunderground v.1.15,2013-03-07 19:45:00,
2013-03-07 13:52:00,27.5,20.9,30.33,SSE,159,3.0,3.0,76,0.00,,,0.00,Wunderground v.1.15,2013-03-07 19:52:00,
2013-03-07 13:57:00,27.4,20.5,30.33,SSE,153,3.0,4.0,75,0.00,,,0.00,Wunderground v.1.15,2013-03-07 19:57:00,
2013-03-07 14:03:00,27.5,20.9,30.32,SE,129,4.0,5.0,76,0.00,,,0.00,Wunderground v.1.15,2013-03-07 20:03:00,
2013-03-07 14:09:00,27.3,20.7,30.32,SE,146,3.0,4.0,76,0.00,,,0.00,Wunderground v.1.15,2013-03-07 20:09:00,
2013-03-07 14:15:00,26.9,20.3,30.32,SE,124,6.0,9.0,76,0.00,,,0.00,Wunderground v.1.15,2013-03-07 20:15:00,
2013-03-07 14:21:00,27.0,20.7,30.32,SE,136,6.0,6.0,77,0.00,,,0.00,Wunderground v.1.15,2013-03-07 20:21:00,
2013-03-07 14:27:00,27.7,21.1,30.32,SSE,147,4.0,6.0,76,0.00,,,0.00,Wunderground v.1.15,2013-03-07 20:27:00,
2013-03-07 14:33:00,27.4,21.1,30.32,SE,138,4.0,8.0,77,0.00,,,0.00,Wunderground v.1.15,2013-03-07 20:33:00,
2013-03-07 14:39:00,27.7,21.4,30.32,SE,128,4.0,5.0,77,0.00,,,0.00,Wunderground v.1.15,2013-03-07 20:39:00,
2013-03-07 14:45:00,27.8,21.2,30.32,ESE,118,4.0,5.0,76,0.00,,,0.00,Wunderground v.1.15,2013-03-07 20:45:00,
2013-03-07 14:51:00,28.2,21.9,30.33,SE,143,4.0,4.0,77,0.00,,,0.00,Wunderground v.1.15,2013-03-07 20:51:00,
2013-03-07 14:57:00,28.3,21.7,30.32,ESE,113,4.0,5.0,76,0.00,,,0.00,Wunderground v.1.15,2013-03-07 20:57:00,
2013-03-07 15:03:00,28.3,21.7,30.32,SE,129,4.0,4.0,76,0.00,,,0.00,Wunderground v.1.15,2013-03-07 21:03:00,
2013-03-07 15:09:00,28.4,21.8,30.32,ESE,108,4.0,7.0,76,0.00,,,0.00,Wunderground v.1.15,2013-03-07 21:09:00,
2013-03-07 15:15:00,28.3,21.7,30.32,SE,131,5.0,7.0,76,0.00,,,0.00,Wunderground v.1.15,2013-03-07 21:15:00,
2013-03-07 15:21:00,28.3,21.7,30.32,ESE,118,4.0,5.0,76,0.00,,,0.00,Wunderground v.1.15,2013-03-07 21:21:00,
2013-03-07 15:27:00,28.5,21.9,30.32,ESE,110,4.0,6.0,76,0.00,,,0.00,Wunderground v.1.15,2013-03-07 21:27:00,
2013-03-07 15:33:00,28.5,21.6,30.32,SE,129,4.0,4.0,75,0.00,,,0.00,Wunderground v.1.15,2013-03-07 21:33:00,
2013-03-07 15:39:00,28.3,21.7,30.32,SE,126,4.0,4.0,76,0.00,,,0.00,Wunderground v.1.15,2013-03-07 21:39:00,
2013-03-07 15:45:00,28.6,21.7,30.31,SE,125,4.0,4.0,75,0.00,,,0.00,Wunderground v.1.15,2013-03-07 21:45:00,
2013-03-07 15:51:00,28.7,22.1,30.31,SSE,150,4.0,5.0,76,0.00,,,0.00,Wunderground v.1.15,2013-03-07 21:51:00,
2013-03-07 15:57:00,28.7,22.1,30.31,SE,129,4.0,5.0,76,0.00,,,0.00,Wunderground v.1.15,2013-03-07 21:57:00,
2013-03-07 16:03:00,28.7,22.4,30.31,East,89,4.0,6.0,77,0.00,,,0.00,Wunderground v.1.15,2013-03-07 22:03:00,
2013-03-07 16:11:00,28.9,22.6,30.31,SSE,162,4.0,6.0,77,0.00,,,0.00,Wunderground v.1.15,2013-03-07 22:11:00,
2013-03-07 16:17:00,28.8,22.5,30.31,SE,134,4.0,7.0,77,0.00,,,0.00,Wunderground v.1.15,2013-03-07 22:17:00,
2013-03-07 16:23:00,28.7,22.4,30.31,East,101,4.0,5.0,77,0.00,,,0.00,Wunderground v.1.15,2013-03-07 22:23:00,
2013-03-07 16:29:00,28.5,22.5,30.31,ESE,110,4.0,4.0,78,0.00,,,0.00,Wunderground v.1.15,2013-03-07 22:29:00,
2013-03-07 16:35:00,28.3,22.3,30.31,SSE,147,4.0,4.0,78,0.00,,,0.00,Wunderground v.1.15,2013-03-07 22:35:00,
2013-03-07 16:41:00,28.3,22.6,30.31,ESE,105,3.0,5.0,79,0.00,,,0.00,Wunderground v.1.15,2013-03-07 22:41:00,
2013-03-07 16:47:00,28.0,22.3,30.31,ESE,110,4.0,7.0,79,0.00,,,0.00,Wunderground v.1.15,2013-03-07 22:47:00,
2013-03-07 16:53:00,27.9,22.5,30.31,SE,129,4.0,6.0,80,0.00,,,0.00,Wunderground v.1.15,2013-03-07 22:53:00,
2013-03-07 16:59:00,27.7,22.6,30.30,ESE,122,4.0,5.0,81,0.00,,,0.00,Wunderground v.1.15,2013-03-07 22:59:00,
2013-03-07 17:05:00,27.7,22.6,30.30,East,95,4.0,5.0,81,0.00,,,0.00,Wunderground v.1.15,2013-03-07 23:05:00,
2013-03-07 17:11:00,27.5,22.4,30.30,SE,132,4.0,7.0,81,0.00,,,0.00,Wunderground v.1.15,2013-03-07 23:11:00,
2013-03-07 17:17:00,27.0,22.2,30.31,ESE,118,4.0,7.0,82,0.00,,,0.00,Wunderground v.1.15,2013-03-07 23:17:00,
2013-03-07 17:23:00,26.9,22.1,30.30,SE,129,4.0,5.0,82,0.00,,,0.00,Wunderground v.1.15,2013-03-07 23:23:00,
2013-03-07 17:29:00,26.7,21.9,30.31,East,94,4.0,4.0,82,0.00,,,0.00,Wunderground v.1.15,2013-03-07 23:29:00,
2013-03-07 17:35:00,26.5,21.7,30.31,East,101,4.0,5.0,82,0.00,,,0.00,Wunderground v.1.15,2013-03-07 23:35:00,
2013-03-07 17:41:00,26.1,21.6,30.31,ESE,119,4.0,5.0,83,0.00,,,0.00,Wunderground v.1.15,2013-03-07 23:41:00,
2013-03-07 17:47:00,25.9,21.4,30.31,ESE,108,4.0,5.0,83,0.00,,,0.00,Wunderground v.1.15,2013-03-07 23:47:00,
2013-03-07 17:53:00,25.7,21.5,30.31,East,87,4.0,4.0,84,0.00,,,0.00,Wunderground v.1.15,2013-03-07 23:53:00,
2013-03-07 17:59:00,25.4,21.2,30.31,ESE,102,3.0,3.0,84,0.00,,,0.00,Wunderground v.1.15,2013-03-07 23:59:00,
2013-03-07 18:05:00,25.1,20.9,30.31,SE,130,3.0,6.0,84,0.00,,,0.00,Wunderground v.1.15,2013-03-08 00:05:00,
2013-03-07 18:12:00,25.0,21.1,30.32,SE,126,3.0,3.0,85,0.00,,,0.00,Wunderground v.1.15,2013-03-08 00:12:00,
2013-03-07 18:17:00,24.9,21.0,30.31,ESE,116,4.0,5.0,85,0.00,,,0.00,Wunderground v.1.15,2013-03-08 00:17:00,
2013-03-07 18:23:00,24.8,20.9,30.31,ESE,105,3.0,5.0,85,0.00,,,0.00,Wunderground v.1.15,2013-03-08 00:23:00,
2013-03-07 18:29:00,24.6,20.7,30.32,SE,127,3.0,4.0,85,0.00,,,0.00,Wunderground v.1.15,2013-03-08 00:29:00,
2013-03-07 18:35:00,24.5,20.6,30.31,ESE,113,4.0,5.0,85,0.00,,,0.00,Wunderground v.1.15,2013-03-08 00:35:00,
2013-03-07 18:41:00,24.3,20.4,30.31,ESE,121,4.0,5.0,85,0.00,,,0.00,Wunderground v.1.15,2013-03-08 00:41:00,
2013-03-07 18:47:00,24.1,20.2,30.31,ESE,119,3.0,5.0,85,0.00,,,0.00,Wunderground v.1.15,2013-03-08 00:47:00,
2013-03-07 18:53:00,23.9,20.3,30.31,SE,144,3.0,4.0,86,0.00,,,0.00,Wunderground v.1.15,2013-03-08 00:53:00,
2013-03-07 18:59:00,23.6,20.0,30.31,East,91,3.0,3.0,86,0.00,,,0.00,Wunderground v.1.15,2013-03-08 00:59:00,
2013-03-07 19:05:00,23.5,19.9,30.31,ESE,107,3.0,4.0,86,0.00,,,0.00,Wunderground v.1.15,2013-03-08 01:05:00,
2013-03-07 19:11:00,23.3,19.7,30.32,East,98,2.0,3.0,86,0.00,,,0.00,Wunderground v.1.15,2013-03-08 01:11:00,
2013-03-07 19:17:00,23.2,19.9,30.32,ESE,116,2.0,3.0,87,0.00,,,0.00,Wunderground v.1.15,2013-03-08 01:17:00,
2013-03-07 19:23:00,23.1,19.8,30.32,ESE,118,2.0,4.0,87,0.00,,,0.00,Wunderground v.1.15,2013-03-08 01:23:00,
2013-03-07 19:29:00,23.1,19.8,30.32,SE,135,3.0,3.0,87,0.00,,,0.00,Wunderground v.1.15,2013-03-08 01:29:00,
2013-03-07 19:35:00,22.9,19.6,30.32,SE,146,2.0,3.0,87,0.00,,,0.00,Wunderground v.1.15,2013-03-08 01:35:00,
2013-03-07 19:41:00,22.7,19.4,30.32,SE,129,2.0,4.0,87,0.00,,,0.00,Wunderground v.1.15,2013-03-08 01:41:00,
2013-03-07 19:47:00,22.4,19.4,30.32,ESE,119,3.0,4.0,88,0.00,,,0.00,Wunderground v.1.15,2013-03-08 01:47:00,
2013-03-07 19:53:00,22.1,19.1,30.32,SE,138,2.0,3.0,88,0.00,,,0.00,Wunderground v.1.15,2013-03-08 01:53:00,
2013-03-07 19:59:00,22.1,19.4,30.32,SSE,157,3.0,3.0,89,0.00,,,0.00,Wunderground v.1.15,2013-03-08 01:59:00,
2013-03-07 20:05:00,22.0,19.0,30.31,ESE,114,3.0,3.0,88,0.00,,,0.00,Wunderground v.1.15,2013-03-08 02:05:00,
2013-03-07 20:11:00,22.0,19.3,30.32,SE,129,3.0,5.0,89,0.00,,,0.00,Wunderground v.1.15,2013-03-08 02:11:00,
2013-03-07 20:17:00,22.0,19.3,30.31,SE,129,3.0,5.0,89,0.00,,,0.00,Wunderground v.1.15,2013-03-08 02:17:00,
2013-03-07 20:23:00,22.1,19.4,30.32,SE,137,3.0,3.0,89,0.00,,,0.00,Wunderground v.1.15,2013-03-08 02:23:00,
2013-03-07 20:29:00,22.2,19.5,30.32,ESE,116,3.0,5.0,89,0.00,,,0.00,Wunderground v.1.15,2013-03-08 02:29:00,
2013-03-07 20:35:00,22.5,19.7,30.32,ESE,121,4.0,5.0,89,0.00,,,0.00,Wunderground v.1.15,2013-03-08 02:35:00,
2013-03-07 20:41:00,22.5,19.7,30.32,ESE,108,4.0,4.0,89,0.00,,,0.00,Wunderground v.1.15,2013-03-08 02:41:00,
2013-03-07 20:47:00,22.6,19.8,30.31,SE,131,3.0,4.0,89,0.00,,,0.00,Wunderground v.1.15,2013-03-08 02:47:00,
2013-03-07 20:53:00,22.7,19.9,30.31,ESE,118,3.0,3.0,89,0.00,,,0.00,Wunderground v.1.15,2013-03-08 02:53:00,
2013-03-07 20:59:00,22.7,19.9,30.31,SE,134,3.0,3.0,89,0.00,,,0.00,Wunderground v.1.15,2013-03-08 02:59:00,
2013-03-07 21:05:00,22.7,19.9,30.31,SE,131,3.0,4.0,89,0.00,,,0.00,Wunderground v.1.15,2013-03-08 03:05:00,
2013-03-07 21:11:00,22.5,19.5,30.32,SE,143,3.0,3.0,88,0.00,,,0.00,Wunderground v.1.15,2013-03-08 03:11:00,
2013-03-07 21:17:00,22.3,19.6,30.32,ESE,121,3.0,3.0,89,0.00,,,0.00,Wunderground v.1.15,2013-03-08 03:17:00,
2013-03-07 21:23:00,21.9,19.2,30.32,SE,130,3.0,3.0,89,0.00,,,0.00,Wunderground v.1.15,2013-03-08 03:23:00,
2013-03-07 21:29:00,21.6,18.9,30.32,SE,129,3.0,3.0,89,0.00,,,0.00,Wunderground v.1.15,2013-03-08 03:29:00,
2013-03-07 21:35:00,21.4,18.7,30.32,ESE,118,3.0,3.0,89,0.00,,,0.00,Wunderground v.1.15,2013-03-08 03:35:00,
2013-03-07 21:41:00,21.1,18.4,30.32,SE,142,3.0,3.0,89,0.00,,,0.00,Wunderground v.1.15,2013-03-08 03:41:00,
2013-03-07 21:47:00,20.9,18.4,30.32,SSE,147,2.0,3.0,90,0.00,,,0.00,Wunderground v.1.15,2013-03-08 03:47:00,
2013-03-07 21:53:00,20.6,18.1,30.32,SE,126,2.0,2.0,90,0.00,,,0.00,Wunderground v.1.15,2013-03-08 03:53:00,
2013-03-07 21:59:00,20.6,18.1,30.33,SE,131,2.0,2.0,90,0.00,,,0.00,Wunderground v.1.15,2013-03-08 03:59:00,
2013-03-07 22:05:00,20.5,18.0,30.33,SE,124,1.0,2.0,90,0.00,,,0.00,Wunderground v.1.15,2013-03-08 04:05:00,
2013-03-07 22:11:00,20.4,17.9,30.33,ESE,121,1.0,2.0,90,0.00,,,0.00,Wunderground v.1.15,2013-03-08 04:11:00,
2013-03-07 22:18:00,20.4,18.2,30.33,SE,136,2.0,2.0,91,0.00,,,0.00,Wunderground v.1.15,2013-03-08 04:18:00,
2013-03-07 22:23:00,20.5,18.3,30.33,SE,134,3.0,3.0,91,0.00,,,0.00,Wunderground v.1.15,2013-03-08 04:23:00,
2013-03-07 22:30:00,20.4,17.9,30.33,ESE,113,3.0,4.0,90,0.00,,,0.00,Wunderground v.1.15,2013-03-08 04:30:00,
2013-03-07 22:35:00,20.3,17.8,30.33,ESE,119,3.0,4.0,90,0.00,,,0.00,Wunderground v.1.15,2013-03-08 04:35:00,
2013-03-07 22:41:00,20.4,18.2,30.33,SE,138,3.0,3.0,91,0.00,,,0.00,Wunderground v.1.15,2013-03-08 04:41:00,
2013-03-07 22:47:00,20.3,17.8,30.33,SE,141,2.0,3.0,90,0.00,,,0.00,Wunderground v.1.15,2013-03-08 04:47:00,
2013-03-07 22:53:00,20.2,17.7,30.33,SE,127,2.0,3.0,90,0.00,,,0.00,Wunderground v.1.15,2013-03-08 04:53:00,
2013-03-07 22:59:00,20.1,17.6,30.33,SE,141,3.0,3.0,90,0.00,,,0.00,Wunderground v.1.15,2013-03-08 04:59:00,
2013-03-07 23:01:00,20.1,17.6,30.33,SE,144,3.0,3.0,90,0.00,,,0.00,Wunderground v.1.15,2013-03-08 05:01:00,
2013-03-07 23:07:00,20.0,17.5,30.33,SSE,157,2.0,4.0,90,0.00,,,0.00,Wunderground v.1.15,2013-03-08 05:07:00,
2013-03-07 23:09:00,20.0,17.5,30.33,SE,142,2.0,2.0,90,0.00,,,0.00,Wunderground v.1.15,2013-03-08 05:09:00,
2013-03-07 23:13:00,19.9,17.7,30.33,ESE,105,2.0,2.0,91,0.00,,,0.00,Wunderground v.1.15,2013-03-08 05:13:00,
2013-03-07 23:19:00,20.0,17.8,30.33,SE,131,1.0,1.0,91,0.00,,,0.00,Wunderground v.1.15,2013-03-08 05:19:00,
2013-03-07 23:25:00,19.8,17.6,30.34,SE,134,1.0,1.0,91,0.00,,,0.00,Wunderground v.1.15,2013-03-08 05:25:00,
2013-03-07 23:31:00,19.8,17.6,30.34,SE,142,1.0,2.0,91,0.00,,,0.00,Wunderground v.1.15,2013-03-08 05:31:00,
2013-03-07 23:37:00,19.8,17.6,30.34,SE,141,1.0,2.0,91,0.00,,,0.00,Wunderground v.1.15,2013-03-08 05:37:00,
2013-03-07 23:43:00,19.7,17.5,30.33,SE,127,1.0,2.0,91,0.00,,,0.00,Wunderground v.1.15,2013-03-08 05:43:00,
2013-03-07 23:49:00,19.6,17.4,30.33,ESE,119,1.0,2.0,91,0.00,,,0.00,Wunderground v.1.15,2013-03-08 05:49:00,
2013-03-07 23:55:00,19.7,17.5,30.33,SE,129,2.0,2.0,91,0.00,,,0.00,Wunderground v.1.15,2013-03-08 05:55:00,